Terug naar catalogus

STARLINK-33842

ActiefCommunicatieVLEO
NORAD 63782·PAYLOAD·🇺🇸 United States

Gelanceerd May 2, 2025 vanaf Cape Canaveral Space Force Station

Loading…

Volgende Passages (komende 24 uur)

TLE

VersSource: CelesTrak SupGP

Epoch: Sep 14, 2026, 20:54 UTC

1 63782C 25091H   26257.87131944  .00017880  00000+0  64777-3 0  2576
2 63782  43.0037  64.1506 0002094 279.1250 124.2321 15.27561175    14

Volg STARLINK-33842 in realtime met AllMySat

Download on the App Store